Location: NCO
(38.4404°N, 77.1340°W)
Time: 19:59:58
(UTC-05:00)

N. Korean satellite - Visible Passes

Search period start: 20 November 2017 00:00
Search period end: 30 November 2017 00:00
Orbit: 460 x 514 km, 97.2° (Epoch: 20 November)

Date Brightness Start Highest point End Pass type
(mag) Time Alt. Az. Time Alt. Az. Time Alt. Az.
20 Nov 10.1 05:53:31 10° ENE 05:55:16 13° E 05:57:00 10° ESE visible
20 Nov 6.4 17:59:57 10° SSE 18:03:23 61° ENE 18:06:54 10° N visible
21 Nov 7.4 17:36:57 10° SE 17:40:00 29° ENE 17:43:07 10° NNE visible
21 Nov 9.8 19:11:41 10° SW 19:13:35 14° W 19:15:31 10° WNW visible
22 Nov 8.2 17:14:37 10° ESE 17:16:42 15° ENE 17:18:49 10° NNE visible
22 Nov 8.7 18:46:54 10° SSW 18:49:57 28° W 18:53:04 10° NW visible
23 Nov 9.4 06:15:20 10° NE 06:18:29 25° E 06:21:36 10° SSE visible
23 Nov 7.1 18:22:56 10° S 18:26:23 60° W 18:29:56 10° NNW visible
24 Nov 10.1 05:53:06 10° ENE 05:54:51 13° E 05:56:36 10° ESE visible
24 Nov 6.5 17:59:28 10° SSE 18:02:55 61° ENE 18:06:29 10° N visible
25 Nov 7.4 17:36:27 10° SE 17:39:32 29° ENE 17:42:41 10° NNE visible
25 Nov 9.8 19:11:08 10° SW 19:13:07 14° W 19:15:06 10° WNW visible
26 Nov 8.2 17:14:05 10° ESE 17:16:13 15° ENE 17:18:22 10° NNE visible
26 Nov 8.6 18:46:23 10° SSW 18:49:28 28° W 18:52:37 10° NW visible
27 Nov 9.4 06:14:53 10° NE 06:18:01 24° E 06:21:07 10° SSE visible
27 Nov 7.1 18:22:24 10° S 18:25:53 61° W 18:29:29 10° NNW visible
28 Nov 10.1 05:52:37 10° ENE 05:54:22 13° E 05:56:05 10° ESE visible
28 Nov 6.5 17:58:54 10° SSE 18:02:24 61° ENE 18:05:59 10° N visible
29 Nov 7.4 17:35:53 10° SE 17:38:59 29° ENE 17:42:10 10° N visible
29 Nov 9.8 19:10:31 10° SW 19:12:34 15° W 19:14:39 10° WNW visible
